TimeEST,TemperatureF,Dew PointF,Humidity,Sea Level PressureIn,VisibilityMPH,Wind Direction,Wind SpeedMPH,Gust SpeedMPH,PrecipitationIn,Events,Conditions,WindDirDegrees,DateUTC
12:17 AM,17.6,10.4,73,29.95,7.0,West,12.7,-,0.00,Snow,Light Snow,260,2013-02-04 05:17:00
12:51 AM,17.1,9.0,71,30.01,7.0,WSW,12.7,-,0.00,Snow,Light Snow,250,2013-02-04 05:51:00
1:32 AM,15.8,10.4,79,29.96,3.0,WSW,10.4,-,0.00,Snow,Light Snow,250,2013-02-04 06:32:00
1:51 AM,16.0,10.0,77,30.03,3.0,WSW,10.4,-,0.00,Snow,Light Snow,250,2013-02-04 06:51:00
2:31 AM,15.8,10.4,79,29.98,2.0,West,9.2,-,0.00,Snow,Light Snow,260,2013-02-04 07:31:00
2:51 AM,16.0,10.9,81,30.05,2.0,West,10.4,-,0.00,Snow,Light Snow,260,2013-02-04 07:51:00
3:35 AM,15.8,10.4,79,29.98,2.5,WSW,8.1,-,0.00,Snow,Light Snow,240,2013-02-04 08:35:00
3:43 AM,15.8,10.4,79,29.98,4.0,WSW,8.1,-,0.00,Snow,Light Snow,250,2013-02-04 08:43:00
3:51 AM,15.1,10.9,84,30.05,4.0,WSW,9.2,-,N/A,Snow,Light Snow,240,2013-02-04 08:51:00
5:51 AM,15.8,10.4,79,29.99,4.0,SW,4.6,-,N/A,Snow,Light Snow,220,2013-02-04 10:51:00
6:12 AM,15.8,10.4,79,29.99,6.0,SW,8.1,-,0.00,Snow,Light Snow,220,2013-02-04 11:12:00
6:51 AM,16.0,9.0,74,30.06,9.0,SW,8.1,-,0.00,Snow,Light Snow,230,2013-02-04 11:51:00
7:24 AM,15.8,10.4,79,29.99,2.0,SW,8.1,-,0.00,Snow,Light Snow,220,2013-02-04 12:24:00
7:39 AM,15.8,10.4,79,29.99,3.0,SW,6.9,-,0.00,Snow,Light Snow,230,2013-02-04 12:39:00
7:51 AM,16.0,10.0,77,30.04,4.0,SSW,5.8,-,0.00,Snow,Light Snow,210,2013-02-04 12:51:00
8:10 AM,15.8,10.4,79,29.98,1.5,SW,6.9,-,0.00,Snow,Light Snow,220,2013-02-04 13:10:00
8:31 AM,15.8,10.4,79,29.98,2.0,SW,9.2,-,0.00,Snow,Light Snow,230,2013-02-04 13:31:00
8:51 AM,17.1,10.0,74,30.05,2.0,SW,8.1,-,0.00,Snow,Light Snow,220,2013-02-04 13:51:00
9:51 AM,18.0,10.9,74,30.03,2.0,SW,9.2,-,0.00,Snow,Light Snow,220,2013-02-04 14:51:00
10:01 AM,17.6,10.4,73,29.97,1.2,SW,9.2,-,0.00,Snow,Light Snow,220,2013-02-04 15:01:00
10:35 AM,17.6,12.2,79,29.97,1.0,SW,9.2,-,0.01,Snow,Light Snow,230,2013-02-04 15:35:00
10:51 AM,19.0,14.0,81,30.02,1.0,SSW,10.4,-,0.01,Snow,Light Snow,200,2013-02-04 15:51:00
11:51 AM,19.9,14.0,78,30.01,1.0,SW,9.2,-,0.01,Snow,Light Snow,230,2013-02-04 16:51:00
12:02 PM,19.4,15.8,86,29.94,0.8,WSW,6.9,-,0.00,Snow,Light Snow,240,2013-02-04 17:02:00
12:26 PM,21.2,15.8,80,29.94,2.0,SW,6.9,-,0.00,Snow,Light Snow,230,2013-02-04 17:26:00
12:40 PM,21.2,15.8,80,29.93,1.2,WSW,6.9,-,0.00,Snow,Light Snow,240,2013-02-04 17:40:00
12:51 PM,21.0,16.0,81,29.99,1.0,WSW,5.8,-,N/A,Snow,Light Snow,240,2013-02-04 17:51:00
1:00 PM,21.2,15.8,80,29.92,0.8,SW,4.6,-,N/A,Snow,Light Snow,230,2013-02-04 18:00:00
1:51 PM,23.0,18.0,81,29.95,0.8,SW,6.9,-,N/A,Snow,Light Snow,230,2013-02-04 18:51:00
2:51 PM,23.0,18.0,81,29.93,0.8,SSW,6.9,-,0.01,Snow,Light Snow,210,2013-02-04 19:51:00
3:33 PM,23.0,17.6,80,29.86,1.2,SSW,8.1,-,0.01,Snow,Light Snow,200,2013-02-04 20:33:00
3:51 PM,23.0,17.1,78,29.91,2.5,SW,5.8,-,0.01,Snow,Light Snow,220,2013-02-04 20:51:00
4:01 PM,23.0,17.6,80,29.86,1.5,Variable,3.5,-,0.00,Snow,Light Snow,0,2013-02-04 21:01:00
4:29 PM,23.0,17.6,80,29.85,2.5,SSW,5.8,-,0.00,Snow,Light Snow,200,2013-02-04 21:29:00
4:51 PM,23.0,18.0,81,29.90,2.0,SSW,3.5,-,0.00,Snow,Light Snow,200,2013-02-04 21:51:00
5:16 PM,23.0,19.4,86,29.84,1.5,South,3.5,-,0.00,Snow,Light Snow,180,2013-02-04 22:16:00
5:33 PM,23.0,17.6,80,29.84,2.5,South,4.6,-,0.00,Snow,Light Snow,190,2013-02-04 22:33:00
5:51 PM,23.0,19.0,85,29.90,2.5,South,3.5,-,0.01,Snow,Light Snow,180,2013-02-04 22:51:00
6:30 PM,23.0,19.4,86,29.85,4.0,Calm,Calm,-,0.00,Snow,Light Snow,0,2013-02-04 23:30:00
6:51 PM,23.0,19.0,85,29.90,5.0,Calm,Calm,-,0.00,Snow,Light Snow,0,2013-02-04 23:51:00
7:39 PM,23.0,19.4,86,29.84,3.0,Calm,Calm,-,0.01,Snow,Light Snow,0,2013-02-05 00:39:00
7:51 PM,23.0,19.0,85,29.90,3.0,Calm,Calm,-,0.01,Snow,Light Snow,0,2013-02-05 00:51:00
8:51 PM,21.9,19.0,89,29.89,4.0,Calm,Calm,-,0.00,Snow,Light Snow,0,2013-02-05 01:51:00
9:51 PM,23.0,19.0,85,29.90,7.0,ENE,3.5,-,0.00,Snow,Light Snow,60,2013-02-05 02:51:00
10:51 PM,23.0,19.0,85,29.90,7.0,Calm,Calm,-,0.00,Snow,Light Snow,0,2013-02-05 03:51:00
11:12 PM,23.0,19.4,86,29.85,7.0,Calm,Calm,-,0.00,Snow,Light Snow,0,2013-02-05 04:12:00
11:51 PM,23.0,19.4,86,29.85,3.0,Calm,Calm,-,N/A,Snow,Light Snow,0,2013-02-05 04:51:00